Location: Briis
(48.6240°N, 2.1211°E)
Time: 01:33:50
(UTC+00:00)

ERBS - Pass Details

Date: 25 September 2020
Orbit: 412 x 419 km, 57.0° (Epoch: 23 October)

Event Time Altitude Azimuth Distance (km) Brightness Sun altitude
Exits shadow 03:11:16 33° 40° (NE) 727 3.9 -24.8°
Drops below altitude 10° 03:13:19 10° 51° (NE) 1,511 6.1 -24.5°
Sets 03:15:26 0° 54° (NE) 2,378 7.5 -24.2°
